Location: Tr�vern
(48.0333°N, 4.6000°W)
Time: 08:20:41
(UTC+00:00)

Cosmos 407 Rocket - Pass Details

Date: 14 July 2020
Orbit: 743 x 786 km, 74.0° (Epoch: 04 August)

Event Time Altitude Azimuth Distance (km) Brightness Sun altitude
Exits shadow 02:35:25 21° 223° (SW) 1,697 4.7 -14.4°
Maximum altitude 02:38:54 59° 297° (WNW) 912 3.8 -14.1°
Drops below altitude 10° 02:44:12 10° 16° (NNE) 2,357 7.3 -13.6°
Sets 02:46:39 0° 21° (NNE) 3,287 8.5 -13.4°
